User: anonymous   Login
Location: Bakhuizen
(52.8696°N, 5.4575°E)
Time: 16:27:09
(UTC+00:00)
Language:

Cosmos 2278 Rocket - Orbit

View from above orbital plane
View from above orbital plane
View from above satellite
View from above satellite

Ground track
Ground track

The orbit data is extracted from the following two-line orbital elements,

1 23088U 94023B   21210.82193616  .00000203  00000-0  13007-3 0  9990
2 23088  70.9991   6.0762 0004580 311.9622  48.1109 14.14692058407925
Epoch (UTC): 29 July 2021 19:43:35
Eccentricity: 0.0004580
inclination: 70.9991°
perigee height: 840 km
apogee height: 846 km
right ascension of ascending node: 6.0762°
argument of perigee: 311.9622°
revolutions per day: 14.14692058
mean anomaly at epoch: 48.1109°
orbit number at epoch: 40792

The dashed part of the orbit path shows where the satellite is in the earth's shadow,  

DLR